Location: Newark
(35.2672°N, 80.7344°W)
Time: 11:01:53
(UTC+00:00)

Transit 2A Rocket - Pass Details

Date: 04 February 2020
Orbit: 592 x 911 km, 66.7° (Epoch: 19 February)

Event Time Altitude Azimuth Distance (km) Brightness Sun altitude
Rises 08:48:03 0° 240° (WSW) 2,829 - -43.5°
Reaches altitude 10° 08:50:45 10° 257° (WSW) 1,919 - -43.0°
Maximum altitude 08:53:59 20° 306° (NW) 1,368 - -42.3°
Drops below altitude 10° 08:57:14 10° 356° (N) 1,943 - -41.7°
Sets 09:00:01 0° 13° (NNE) 2,876 - -41.1°
